Dewpoint
35 35 36 38 38 38 38 39 39 39 39 39 39 40 41 42 43 44 46 46 47 47 47 47 47 48 48 49 50 51 52 52 53 53 53 53 53 53 53 53 53 53 53 53 53 52 52 53 53 53 53 53 53 53 54 54 55 56 57 57 57 57 57 58 58 57 57 58 58 59 60 61 61 61 62 62 62 62 62 61 61 60 60 60 59 59
33 34 34 36 36 37 37 38 38 38 39 39 39 39 40 41 42 43 44 45 46 47 48 48 48 49 49 50 51 52 52 52 53 53 53 53 53 53 54 54 53 53 53 53 53 53 53 53 53 53 53 53 53 53 53 54 54 55 55 56 57 57 57 57 57 57 57 57 58 58 59 60 61 61 61 61 61 61 61 61 60 60 59 59 59 59
31 32 33 34 35 36 36 36 37 38 39 39 39 39 39 40 41 41 42 42 43 44 45 46 48 49 50 50 51 52 52 53 53 53 53 54 54 54 54 54 54 53 53 53 53 53 53 53 53 53 53 53 53 53 53 53 54 54 55 55 56 56 57 57 57 57 57 57 57 57 58 59 60 61 61 61 61 61 61 61 60 59 59 59 59 59
30 30 31 33 33 33 33 34 34 35 36 37 38 38 39 39 40 40 41 42 43 44 45 46 48 48 49 50 50 51 52 52 53 53 53 53 54 54 54 54 53 53 53 53 53 53 53 53 53 53 53 53 53 53 53 53 54 54 54 55 55 56 56 56 56 56 56 56 56 57 57 58 59 60 60 61 61 61 61 60 60 59 58 58 58 58
30 30 30 30 30 29 30 30 31 32 34 35 36 37 38 39 40 41 43 44 45 46 47 48 48 48 49 49 49 50 52 52 52 53 53 53 53 54 53 53 53 53 53 53 53 53 53 53 53 53 53 53 53 53 53 53 53 54 54 55 55 55 55 55 55 55 56 56 56 56 56 57 58 59 60 60 61 61 60 60 59 59 58 58 58 58
30 30 30 30 29 28 29 29 30 31 33 34 35 35 36 38 39 41 43 43 43 43 44 44 45 46 48 48 49 50 51 51 52 52 52 53 53 53 53 53 53 53 53 53 53 53 53 53 53 53 53 53 53 53 53 53 53 54 54 54 55 55 55 55 55 55 55 55 55 55 56 56 57 57 59 59 60 60 60 59 59 58 57 57 57 57
29 30 30 30 30 30 30 30 30 31 32 33 34 34 35 36 38 39 39 38 38 39 39 40 42 44 46 48 48 49 50 51 51 51 52 52 52 52 52 52 52 52 52 52 52 52 52 52 52 52 52 52 52 52 53 53 53 53 54 54 54 55 55 55 55 55 55 55 55 55 55 55 56 57 57 58 59 59 59 59 58 58 57 57 57 57
29 29 29 30 30 30 30 30 31 32 34 34 34 34 34 35 36 36 37 37 37 37 38 39 42 43 45 47 48 49 50 49 49 49 50 50 51 51 52 52 52 52 52 52 52 52 52 52 52 52 52 52 52 52 52 53 53 53 53 53 54 54 54 55 55 55 55 55 55 55 55 55 55 56 57 57 58 58 58 58 58 57 57 56 56 56
30 30 30 30 30 30 30 31 32 34 35 36 37 36 36 35 35 36 37 38 39 39 41 42 43 44 45 46 47 48 48 48 48 48 48 49 49 50 50 51 51 51 52 52 52 52 52 52 52 52 52 52 52 52 52 52 52 52 53 53 53 53 54 54 55 55 55 55 55 55 55 55 55 55 56 56 57 57 57 57 57 57 57 56 56 56
33 31 31 31 31 32 33 33 34 34 36 38 39 39 38 37 37 38 38 39 40 41 42 42 42 41 41 41 42 43 44 45 46 47 48 48 49 50 50 50 51 51 51 51 51 51 51 51 51 51 51 51 51 52 52 51 51 52 52 52 52 53 53 53 54 54 55 55 55 55 55 55 55 55 55 56 56 56 56 56 56 56 56 56 56 56
34 33 33 32 33 34 34 34 35 35 36 37 37 36 36 36 37 38 38 37 37 37 37 36 36 36 36 36 37 38 39 41 42 44 45 47 48 49 50 50 51 51 51 51 51 51 51 51 51 51 51 51 51 51 51 51 50 51 51 52 52 52 52 53 53 54 54 55 55 55 55 55 55 55 56 55 55 55 55 55 55 55 56 57 56 56
34 34 33 33 33 33 33 33 34 34 34 33 32 32 32 34 35 35 34 34 34 33 33 34 35 36 37 37 37 38 39 40 41 42 43 45 47 48 48 49 49 50 50 50 50 50 50 50 50 51 51 51 51 50 50 50 50 50 50 51 52 52 52 52 53 53 53 54 54 55 55 55 55 55 56 55 55 55 54 54 54 55 56 56 56 56
33 32 32 31 31 31 31 31 30 30 30 30 30 30 30 31 33 34 34 34 34 34 34 35 37 39 40 41 42 42 42 43 43 43 44 45 46 47 47 47 47 48 48 48 48 48 49 49 49 50 50 50 50 50 49 49 49 50 50 51 51 52 52 52 52 53 53 54 54 54 55 55 55 55 55 55 55 55 54 54 54 54 55 55 55 55
31 30 30 30 30 30 30 29 29 29 29 29 30 30 31 32 33 34 34 34 34 35 36 38 39 41 42 43 44 44 44 44 44 44 45 45 45 46 46 46 46 46 46 46 46 47 48 48 48 48 49 49 49 49 49 49 49 50 50 50 51 52 52 52 52 53 53 53 54 54 54 54 54 55 55 55 55 55 54 54 54 54 54 54 54 54
30 30 29 28 28 29 29 30 30 30 30 30 31 31 32 33 34 34 35 35 36 37 39 40 40 39 38 38 39 40 41 41 41 42 43 44 45 45 44 44 45 45 45 45 45 46 47 47 47 47 48 48 48 48 49 49 49 50 50 50 51 51 52 52 52 52 53 53 53 53 53 54 54 54 55 55 54 54 54 53 53 52 52 52 52 52
30 30 29 28 28 29 30 30 30 30 31 31 32 33 34 35 35 36 36 37 37 38 39 38 36 35 34 35 36 37 38 38 39 40 42 43 43 43 43 43 43 43 43 43 44 44 45 45 46 46 47 47 48 48 49 49 49 49 50 50 51 51 51 52 52 52 52 52 53 53 53 53 54 54 54 54 54 53 53 52 52 52 51 52 52 52
30 30 30 30 30 30 30 30 31 32 32 33 34 34 35 36 37 38 38 39 39 38 37 36 35 34 34 34 36 38 39 41 41 42 43 43 42 41 41 42 42 42 42 43 43 43 44 44 45 45 46 47 47 48 48 48 49 49 49 50 50 51 51 51 51 52 52 52 52 53 53 53 53 53 53 53 53 52 52 52 51 51 51 51 51 51
30 31 31 31 31 30 30 31 31 32 34 34 34 35 36 37 38 38 39 39 39 38 38 37 36 36 36 36 37 39 42 42 42 41 41 42 41 40 39 41 41 41 41 41 42 43 43 43 44 44 45 46 46 47 47 48 48 48 49 49 50 50 50 51 51 51 52 52 52 52 52 53 53 53 52 52 52 52 51 51 50 50 50 50 50 50
30 31 31 31 30 31 31 32 33 34 35 35 36 36 37 38 38 39 39 39 39 39 38 38 38 38 38 38 39 41 40 40 40 39 39 38 39 39 39 40 40 40 40 41 41 42 43 43 43 44 45 46 46 46 46 47 47 47 48 48 49 49 50 50 51 51 52 52 52 52 52 52 52 52 52 52 51 51 50 50 50 50 49 49 49 49
30 30 30 31 31 31 32 33 34 34 35 36 37 38 38 38 38 39 39 39 39 39 39 39 39 39 39 38 37 38 39 39 39 39 38 37 37 38 40 40 39 39 39 40 41 42 42 42 42 43 44 45 45 45 45 46 46 46 47 48 48 48 49 50 50 51 51 51 52 52 52 52 52 51 51 51 50 50 50 49 49 49 49 49 48 48
30 30 30 32 33 34 34 34 34 35 36 37 38 38 38 38 38 38 38 39 39 39 39 39 39 39 39 38 37 37 39 39 39 39 39 38 38 39 40 40 40 40 39 40 40 41 39 39 40 41 43 43 44 44 45 45 45 46 46 47 47 48 48 49 49 50 51 51 51 51 51 51 51 50 50 50 50 49 49 49 48 48 48 48 48 48
31 32 33 34 34 35 35 36 37 38 39 39 39 38 38 38 38 38 38 38 38 38 38 38 38 39 39 39 39 39 40 40 40 40 39 39 38 39 39 40 40 40 39 40 39 38 35 36 37 39 41 42 43 43 44 44 44 45 45 46 46 47 48 48 49 49 50 50 51 51 51 50 50 50 49 49 49 48 48 48 48 48 48 47 47 47
32 33 34 35 36 37 37 38 39 39 40 39 39 38 37 36 36 35 35 36 36 37 37 37 38 38 39 39 39 39 40 41 41 41 40 39 38 38 39 40 40 39 39 39 38 36 33 34 35 37 39 41 42 43 43 43 44 44 45 46 46 47 48 48 49 50 50 50 50 50 50 49 49 49 48 48 48 48 47 47 47 46 46 46 46 46
33 34 36 37 38 38 39 39 39 39 39 37 36 35 34 34 34 34 35 36 37 37 37 38 38 38 38 38 38 39 39 41 41 41 40 39 39 39 40 39 39 39 39 39 38 35 33 34 35 36 38 39 41 42 43 43 43 44 45 46 47 48 48 49 49 49 49 49 49 49 48 48 48 48 48 47 47 46 46 45 45 45 45 45 45 45
34 35 37 38 38 39 39 39 39 38 36 34 34 34 34 35 36 36 37 37 37 37 37 37 36 36 36 36 37 38 39 40 41 40 39 39 39 39 39 39 39 39 39 38 35 33 33 34 34 35 36 38 40 41 42 43 44 44 45 46 48 48 49 49 49 49 48 48 48 48 48 47 47 47 46 46 45 45 44 44 44 44 44 44 44 44
34 36 37 38 38 38 38 37 36 36 36 35 35 36 36 37 37 37 37 37 37 36 36 35 34 34 34 34 35 36 37 38 39 39 39 39 38 37 37 38 38 39 39 35 34 33 34 34 34 34 34 36 39 41 43 44 45 45 47 48 48 49 48 48 48 48 47 47 47 47 46 46 46 46 45 45 44 44 44 43 43 43 43 43 43 43
35 36 36 36 36 36 36 36 36 37 37 37 37 37 38 38 37 36 35 35 36 35 34 32 31 30 30 30 30 31 33 34 36 37 38 38 38 36 35 35 36 37 38 34 33 33 34 34 34 34 34 34 36 39 43 45 46 47 48 48 48 48 48 47 47 46 46 46 46 46 45 45 45 45 44 44 44 43 43 43 43 43 43 43 42 42
34 34 34 35 35 36 36 36 36 36 36 36 37 37 37 37 35 34 33 34 34 34 32 30 30 29 29 29 29 30 31 33 34 36 38 38 37 36 34 33 34 36 36 34 33 33 34 33 33 33 33 34 35 38 42 45 47 48 48 48 48 47 46 46 46 46 45 45 45 45 45 45 44 44 44 44 43 43 43 43 43 43 42 41 41 40
33 33 34 35 36 36 36 36 36 36 36 36 36 37 37 36 35 34 34 34 34 33 32 31 31 30 30 30 29 30 30 31 33 35 37 37 37 35 31 33 34 35 36 33 31 30 29 30 30 31 32 34 34 36 39 43 45 46 46 46 46 46 45 45 45 45 45 45 44 44 44 44 44 44 44 43 43 43 43 43 43 42 41 40 39 39
32 32 33 34 35 35 35 34 34 35 35 36 36 36 37 36 36 35 35 35 34 34 32 31 31 30 29 29 28 28 28 30 33 36 37 37 36 34 30 32 34 35 35 32 30 29 27 27 28 30 32 33 34 34 35 39 40 42 43 44 45 45 45 45 45 44 44 44 44 44 44 44 44 43 43 43 43 43 43 42 42 41 39 39 38 38
30 31 32 33 34 34 34 33 34 34 35 35 35 35 36 36 36 36 36 35 34 33 32 30 30 29 29 28 27 26 26 29 33 36 37 37 36 34 33 33 34 34 35 33 32 30 28 26 27 29 31 32 32 32 33 34 36 37 39 41 42 43 44 44 44 44 44 44 44 44 43 43 43 43 43 43 42 42 42 42 41 39 38 37 36 36
30 30 31 32 33 33 32 32 33 33 34 34 35 35 35 36 36 36 35 35 34 33 31 30 29 29 29 28 27 26 26 28 32 35 36 36 35 36 36 34 34 34 34 33 33 32 30 27 27 28 30 30 30 30 31 32 33 34 36 38 39 41 43 44 44 43 43 43 43 43 43 43 43 43 42 42 42 42 41 41 40 39 37 36 35 35
30 30 31 32 32 32 31 31 32 33 33 34 34 34 35 35 35 35 35 34 33 32 31 30 29 28 28 28 28 27 27 29 31 34 36 35 35 35 35 35 34 34 33 32 30 30 29 28 27 27 29 29 29 29 29 30 32 33 34 35 37 39 41 42 42 42 42 43 43 43 43 42 42 42 42 41 41 41 41 40 39 38 36 35 34 34
30 30 31 32 32 31 30 31 32 33 33 34 34 34 34 34 34 34 34 33 33 32 31 30 29 28 28 27 27 27 27 29 31 34 36 36 35 34 35 34 34 34 32 30 28 26 26 26 26 27 27 28 28 27 27 28 30 31 32 34 34 35 38 39 40 40 40 40 41 41 41 41 41 41 41 41 41 40 40 40 39 38 37 35 34 34
30 30 31 31 31 30 30 30 31 32 33 33 33 33 34 33 33 33 33 32 32 31 31 30 30 29 28 27 27 26 26 28 30 33 35 35 34 34 34 34 34 34 32 30 28 26 24 25 26 27 27 26 26 25 25 25 27 29 30 31 32 33 34 35 37 37 38 38 38 38 38 39 39 40 40 40 40 40 40 39 39 38 37 36 35 34
30 30 30 30 30 29 29 29 30 30 31 32 32 32 32 32 32 32 32 31 31 31 31 30 30 30 30 29 28 28 27 29 30 32 34 33 33 32 31 32 33 33 33 31 30 27 25 25 26 27 27 26 25 24 23 25 26 28 28 29 30 30 31 33 34 34 34 34 34 34 35 36 38 39 39 40 40 40 40 39 39 38 38 37 36 35
30 30 30 29 29 29 29 28 29 29 29 30 30 31 31 31 31 31 31 31 31 30 30 30 30 30 31 30 30 30 30 30 30 30 31 31 30 30 30 31 32 33 33 32 30 29 27 26 26 27 27 25 24 22 23 24 25 26 26 26 27 28 30 31 33 33 33 33 33 33 34 35 36 38 39 39 40 40 40 39 39 38 38 37 36 36
29 30 29 29 28 28 28 28 27 27 28 28 29 30 30 30 30 30 30 30 30 30 30 30 30 30 31 31 31 30 30 29 29 29 29 29 30 30 30 30 31 33 33 32 31 30 28 27 26 25 25 25 24 24 24 25 25 25 24 25 25 26 27 29 31 32 31 32 32 33 34 34 35 36 37 39 39 39 38 38 38 38 37 37 36 36
29 29 28 28 28 28 28 27 27 27 28 28 29 30 30 30 30 30 30 29 29 29 29 29 29 29 30 30 30 30 30 29 29 28 28 29 29 30 30 30 31 32 32 32 31 30 29 27 26 25 24 24 24 24 25 25 25 24 24 25 25 25 25 27 29 30 31 31 32 32 32 32 32 33 33 34 35 36 35 36 36 36 35 34 34 34
28 28 28 28 28 28 28 28 28 28 28 29 30 30 30 30 29 29 28 28 28 28 28 29 29 30 30 30 30 30 29 28 28 28 28 28 28 29 30 30 30 30 30 30 30 29 29 27 26 25 25 24 23 24 25 25 25 25 25 25 24 23 24 25 26 28 29 29 29 29 29 29 30 31 31 32 32 32 32 32 33 34 34 32 31 31
28 28 28 27 27 28 28 28 29 29 29 29 29 29 28 28 27 27 26 26 26 27 27 28 29 29 29 28 28 28 28 27 28 28 28 28 28 29 30 30 30 30 30 29 29 28 28 27 26 25 25 24 24 24 25 25 25 26 27 25 22 21 22 23 24 25 27 27 27 28 29 29 29 30 29 29 28 27 28 28 29 30 30 28 29 30
28 28 27 27 27 27 28 29 29 30 29 28 28 27 27 26 26 26 26 26 25 25 26 27 27 27 26 26 26 26 27 27 27 27 28 28 28 28 29 30 30 30 29 28 28 27 27 27 26 25 24 24 24 24 24 25 26 27 26 24 22 22 23 21 21 21 25 26 26 27 29 28 27 26 26 25 24 25 27 27 29 29 28 25 25 27
28 28 28 28 28 28 29 29 29 28 28 27 26 26 26 26 26 26 26 25 25 25 25 26 26 26 25 25 25 25 25 26 26 27 27 27 27 27 27 28 28 29 29 27 26 25 26 26 25 25 24 25 24 24 24 25 25 25 25 24 23 23 21 19 19 20 23 24 25 25 25 24 23 22 22 22 22 23 25 29 30 30 28 25 24 24
28 28 28 28 28 28 29 28 27 26 26 26 26 26 26 26 27 27 26 25 25 25 25 26 26 26 25 24 24 24 24 25 25 26 26 27 27 27 26 25 26 26 27 26 25 24 24 23 23 23 24 25 25 24 24 24 23 23 24 25 25 23 21 20 19 20 21 21 21 21 21 21 21 20 21 20 20 21 23 23 23 24 25 23 22 23
28 27 27 27 27 27 27 26 26 26 26 25 25 25 26 26 26 26 26 25 25 25 25 26 26 25 24 23 23 23 23 23 24 25 25 26 27 27 26 25 25 25 24 25 24 23 22 21 21 22 24 24 24 23 23 22 22 22 23 23 22 20 19 20 20 20 20 19 19 18 19 19 20 20 19 18 18 19 19 20 21 21 21 21 21 22
26 26 26 26 26 27 27 27 26 26 25 25 25 25 25 26 26 26 26 25 25 25 25 26 25 24 23 23 23 23 22 22 22 23 23 24 25 25 25 25 25 24 23 23 23 23 22 22 22 23 23 23 22 22 22 21 21 21 20 20 19 18 19 19 19 19 19 18 18 17 18 18 19 20 19 18 17 17 17 18 19 19 19 19 20 21
25 25 25 26 26 26 27 26 26 25 25 25 25 25 25 25 25 25 25 25 25 25 25 25 25 24 23 23 23 22 22 21 21 22 22 23 23 24 24 24 25 25 24 23 23 23 23 23 23 23 22 21 20 20 20 21 21 20 19 19 19 18 18 17 17 17 18 18 17 16 16 17 18 18 18 17 16 16 16 16 17 17 18 19 19 19
25 25 25 26 26 26 26 26 25 25 25 24 24 25 25 25 26 26 25 25 25 25 25 25 24 23 23 23 23 23 22 21 21 21 22 22 22 23 23 23 23 24 24 24 24 24 24 24 23 22 21 20 19 19 19 19 19 19 19 19 19 18 17 16 16 16 17 17 16 16 16 17 17 17 17 17 17 16 16 16 16 16 17 18 19 19
25 25 25 26 26 26 26 25 25 25 24 24 24 25 25 25 26 26 25 25 25 25 24 24 23 23 23 23 23 23 23 22 21 21 21 22 22 22 22 22 22 22 22 22 22 22 23 24 24 24 23 21 20 19 18 17 17 18 18 18 18 17 16 16 16 16 16 16 16 15 15 16 16 16 17 17 17 16 15 15 14 14 14 16 17 19
25 25 26 26 26 26 25 25 25 24 24 24 24 24 25 25 25 25 25 25 25 24 24 24 24 23 23 23 23 22 22 21 21 21 21 21 22 22 21 21 21 21 21 20 19 19 19 21 22 24 25 23 21 19 16 16 16 16 16 17 17 17 17 16 16 16 16 16 16 15 15 14 14 16 17 17 16 16 14 15 15 14 13 15 16 18
25 25 26 26 26 26 25 25 25 25 25 25 25 24 24 24 24 24 24 24 24 24 24 24 24 24 23 22 22 22 22 21 21 21 21 21 21 21 21 20 20 19 19 17 16 15 15 16 17 19 21 24 23 21 16 16 16 16 16 15 15 16 16 16 16 17 18 17 16 15 16 16 15 15 16 16 16 16 14 14 14 13 12 13 15 17